, CO

(GMT )
Mount Werner

Weather History for K3MW - May, 2013

Change the Weather History Date:

Sunday, May 19, 2013

  Actual Average Record
Temperature  
Mean Temperature 34 °F -  
Max Temperature 37 °F - - ()
Min Temperature 32 °F - - ()
Degree Days  
Heating Degree Days 30    
Moisture  
Dew Point 31 °F    
Average Humidity 89    
Maximum Humidity 100    
Minimum Humidity 75    
Precipitation  
Precipitation 0.00 in - - ()
Sea Level Pressure  
Sea Level Pressure 29.92 in    
Wind  
Wind Speed 12 mph (West)    
Max Wind Speed 21 mph    
Max Gust Speed 30 mph    
Visibility 3 miles    
Events Fog , Rain , Snow , Thunderstorm    
T = Trace of Precipitation, MM = Missing Value Source: NWS Daily Summary

Daily Weather History Graph

Daily Weather History Graph

Search for Another Location

Airport or City:

Trip Planner

Search our weather history database for the weather conditions in past years. The results will help you decide how hot, cold, wet, or windy it might be!

Date:

Astronomy

May. 19, 2013 Rise Set
Actual Time 5:46 AM MDT 8:20 PM MDT
Civil Twilight 5:15 AM MDT 8:52 PM MDT
Nautical Twilight 4:36 AM MDT 9:31 PM MDT
Astronomical Twilight 3:52 AM MDT 10:15 PM MDT
Moon 2:26 PM MDT (5/19) 2:13 AM MDT (5/19)
Length of Visible Light 15h 36m
Length of Day
14h 33m
Waxing Gibbous, 66% of the Moon is Illuminated
May 19
Waxing Gibbous
May 24
Full
May 31
Last Quarter
Jun 8
New
Jun 16
First Quarter

Hourly Weather History & Observations

Time (MDT) Temp. Windchill Dew Point Humidity Pressure Visibility Wind Dir Wind Speed Gust Speed Precip Events Conditions
12:16 AM 32.0 °F 24.2 °F 32.0 °F 100% 29.97 in 0.2 mi WSW 9.2 mph - N/A Snow Heavy Snow
12:36 AM 32.0 °F 23.6 °F 30.2 °F 93% 29.96 in 0.2 mi WNW 10.4 mph - N/A Snow Heavy Snow
12:56 AM 32.0 °F 23.6 °F 30.2 °F 93% 29.95 in 0.2 mi NW 10.4 mph - N/A   Overcast
1:16 AM 32.0 °F 25.6 °F 30.2 °F 93% 29.95 in 0.2 mi WNW 6.9 mph - N/A Snow Heavy Snow
1:36 AM 32.0 °F 24.8 °F 30.2 °F 93% 29.94 in 0.2 mi West 8.1 mph - N/A Snow Heavy Snow
1:56 AM 32.0 °F 24.2 °F 30.2 °F 93% 29.94 in 0.2 mi West 9.2 mph - N/A Snow Heavy Snow
2:16 AM 32.0 °F 23.0 °F 30.2 °F 93% 29.93 in 0.2 mi West 11.5 mph 16.1 mph N/A Snow Heavy Snow
2:36 AM 32.0 °F 24.2 °F 30.2 °F 93% 29.93 in 0.2 mi West 9.2 mph - N/A Snow Heavy Snow
2:56 AM 32.0 °F 22.5 °F 30.2 °F 93% 29.92 in 0.2 mi WNW 12.7 mph - N/A Snow Heavy Snow
3:16 AM 32.0 °F 22.1 °F 30.2 °F 93% 29.92 in 0.2 mi West 13.8 mph 21.9 mph N/A Snow Heavy Snow
3:36 AM 32.0 °F 22.5 °F 30.2 °F 93% 29.92 in 0.2 mi WNW 12.7 mph 21.9 mph N/A Snow Heavy Snow
3:56 AM - - - N/A% 29.92 in 0.2 mi West 12.7 mph 18.4 mph N/A   Unknown
4:16 AM 32.0 °F 23.0 °F 30.2 °F 93% 29.92 in 0.2 mi WNW 11.5 mph 19.6 mph N/A Snow Heavy Snow
4:36 AM - - - N/A% 29.92 in 0.2 mi West 10.4 mph - N/A   Unknown
4:56 AM - - - N/A% 29.92 in 0.2 mi West 11.5 mph 16.1 mph N/A   Unknown
5:16 AM - - - N/A% 29.92 in 0.2 mi West 12.7 mph 18.4 mph N/A   Unknown
5:36 AM - - - N/A% 29.92 in 0.2 mi West 12.7 mph 19.6 mph N/A   Unknown
6:16 AM - - - N/A% 29.91 in 0.2 mi West 13.8 mph 18.4 mph N/A   Unknown
6:36 AM - - - N/A% 29.91 in 0.2 mi West 13.8 mph 24.2 mph N/A   Unknown
6:56 AM - - - N/A% 29.90 in 0.2 mi West 13.8 mph 18.4 mph N/A   Unknown
7:16 AM - - - N/A% 29.91 in 0.2 mi West 12.7 mph 20.7 mph N/A   Unknown
7:36 AM - - - N/A% 29.91 in 0.2 mi West 13.8 mph - N/A   Unknown
7:56 AM - - - N/A% 29.91 in 0.2 mi West 15.0 mph 19.6 mph N/A   Unknown
8:16 AM - - - N/A% 29.92 in 0.2 mi WNW 9.2 mph 19.6 mph N/A   Unknown
8:56 AM - - - N/A% 29.92 in 0.2 mi West 11.5 mph 17.3 mph N/A Thunderstorm Unknown
9:16 AM - - - N/A% 29.92 in 0.2 mi West 11.5 mph 17.3 mph N/A   Unknown
9:36 AM - - - N/A% 29.92 in 0.2 mi West 13.8 mph 19.6 mph N/A   Unknown
9:56 AM - - - N/A% 29.92 in 0.2 mi West 10.4 mph 17.3 mph N/A   Unknown
10:16 AM - - - N/A% 29.92 in 0.2 mi West 13.8 mph 17.3 mph N/A   Unknown
10:36 AM - - - N/A% 29.92 in 0.2 mi West 13.8 mph 23.0 mph N/A   Unknown
10:56 AM - - - N/A% 29.92 in 0.2 mi WNW 13.8 mph 20.7 mph N/A Thunderstorm Unknown
11:16 AM - - - N/A% 29.92 in 0.2 mi West 15.0 mph 20.7 mph N/A Thunderstorm Overcast
11:36 AM - - - N/A% 29.91 in 0.2 mi West 12.7 mph 20.7 mph N/A Rain Light Rain
11:56 AM - - - N/A% 29.92 in 0.2 mi SW 9.2 mph 20.7 mph N/A Rain , Thunderstorm Light Thunderstorms and Rain
12:16 PM - - - N/A% 29.90 in 0.2 mi West 20.7 mph 27.6 mph N/A Thunderstorm Unknown
12:36 PM - - - N/A% 29.91 in 0.2 mi West 15.0 mph 21.9 mph N/A   Unknown
1:16 PM - - - N/A% 29.92 in 0.2 mi West 11.5 mph 21.9 mph N/A   Unknown
1:36 PM - - - N/A% 29.92 in 0.2 mi WNW 11.5 mph 18.4 mph N/A Fog Fog
2:16 PM - - - N/A% 29.91 in 10.0 mi WNW 16.1 mph 26.5 mph N/A   Mostly Cloudy
2:36 PM - - - N/A% 29.92 in 10.0 mi WNW 16.1 mph 25.3 mph N/A   Overcast
2:56 PM 32.0 °F 21.2 °F 32.0 °F 100% 29.92 in 10.0 mi West 16.1 mph 23.0 mph N/A   Overcast
3:16 PM 33.8 °F 22.5 °F 32.0 °F 93% 29.90 in 10.0 mi West 19.6 mph 27.6 mph N/A Rain Light Rain
3:36 PM 33.8 °F 22.8 °F 32.0 °F 93% 29.91 in 10.0 mi West 18.4 mph 27.6 mph N/A   Mostly Cloudy
3:56 PM 35.6 °F 25.5 °F 30.2 °F 81% 29.90 in 10.0 mi West 17.3 mph 29.9 mph N/A   Mostly Cloudy
4:16 PM 35.6 °F 26.2 °F 30.2 °F 81% 29.92 in 10.0 mi West 15.0 mph 24.2 mph N/A   Mostly Cloudy
4:36 PM 35.6 °F 27.1 °F 30.2 °F 81% 29.91 in 4.0 mi WNW 12.7 mph 20.7 mph N/A Snow Light Snow
4:56 PM 37.4 °F 29.8 °F 30.2 °F 75% 29.90 in 10.0 mi WNW 11.5 mph 24.2 mph N/A   Overcast
5:16 PM 35.6 °F 26.6 °F 32.0 °F 87% 29.91 in 7.0 mi NW 13.8 mph 25.3 mph N/A   Overcast
5:36 PM 37.4 °F 28.5 °F 30.2 °F 75% 29.91 in 10.0 mi WNW 15.0 mph 20.7 mph N/A   Scattered Clouds
5:56 PM 37.4 °F 28.2 °F 30.2 °F 75% 29.90 in 10.0 mi WNW 16.1 mph 23.0 mph N/A   Clear
6:16 PM 37.4 °F 27.5 °F 32.0 °F 81% 29.90 in 10.0 mi WNW 18.4 mph 26.5 mph N/A   Mostly Cloudy
6:36 PM 37.4 °F 27.8 °F 30.2 °F 75% 29.90 in 10.0 mi WNW 17.3 mph 24.2 mph N/A   Scattered Clouds
6:56 PM 35.6 °F 25.5 °F 30.2 °F 81% 29.90 in 10.0 mi WNW 17.3 mph 24.2 mph N/A   Scattered Clouds
7:16 PM 35.6 °F 25.9 °F 30.2 °F 81% 29.90 in 10.0 mi WNW 16.1 mph 21.9 mph N/A   Scattered Clouds
7:36 PM 35.6 °F 25.9 °F 30.2 °F 81% 29.92 in 10.0 mi WNW 16.1 mph 24.2 mph N/A   Clear
7:56 PM 35.6 °F 26.2 °F 30.2 °F 81% 29.92 in 10.0 mi WNW 15.0 mph 25.3 mph N/A   Scattered Clouds
8:16 PM 35.6 °F 26.6 °F 32.0 °F 87% 29.94 in 10.0 mi WNW 13.8 mph - N/A   Mostly Cloudy
8:36 PM 33.8 °F 24.8 °F 32.0 °F 93% 29.94 in 10.0 mi WNW 12.7 mph 18.4 mph N/A   Overcast
8:56 PM 33.8 °F 24.3 °F 32.0 °F 93% 29.94 in 10.0 mi West 13.8 mph 20.7 mph N/A   Overcast
9:16 PM 33.8 °F 24.3 °F 32.0 °F 93% 29.94 in 4.0 mi WNW 13.8 mph 17.3 mph N/A Snow Light Snow
9:36 PM 33.8 °F 24.3 °F 32.0 °F 93% 29.94 in 7.0 mi WNW 13.8 mph 20.7 mph N/A Snow Light Snow
9:56 PM 33.8 °F 24.8 °F 32.0 °F 93% 29.94 in 0.2 mi West 12.7 mph 18.4 mph N/A Snow Snow
10:16 PM 33.8 °F 24.3 °F 32.0 °F 93% 29.94 in 0.2 mi WNW 13.8 mph - N/A Snow Light Snow
10:36 PM 33.8 °F 25.8 °F 32.0 °F 93% 29.94 in 0.5 mi WNW 10.4 mph - N/A   Overcast
10:56 PM 33.8 °F 25.3 °F 32.0 °F 93% 29.94 in 0.2 mi West 11.5 mph - N/A Snow Light Snow
11:16 PM 33.8 °F 26.4 °F 32.0 °F 93% 29.94 in 0.2 mi West 9.2 mph - N/A Snow Light Snow
11:36 PM 33.8 °F 25.3 °F 32.0 °F 93% 29.94 in 0.2 mi West 11.5 mph 17.3 mph N/A Snow Heavy Snow
11:56 PM 33.8 °F 24.3 °F 32.0 °F 93% 29.93 in 0.2 mi West 13.8 mph 18.4 mph N/A Snow Heavy Snow